SL-8 DEB, 1479

Orbit data source: Space-Track

SL-8 DEB, 1479 is space debris in LEO originally from a launch on Mon, 15 Mar 1965 UTC launched from the Tyuratam Missile And Space Complex (TTMTR). Debris objects in space refer to the collection of defunct objects orbiting the Earth. Examples of debris include non-operational satellites, rocket bodies, and fragments generated from explosions, collisions, or faulty payload assembly.

Loading next visibility...
Identifier
1479, 1965-020BD
Orbit
LEO
Country
Flag of CISCIS
Related business
Manufacturer
Unknown
Mission
Spacecraft
Bus & Motor
Unknown
Mass
Unknown
Launch date (UTC)
1965-03-15 (61 years ago)
Launch vehicle
Unknown
Launch site
Tyuratam Missile And Space Complex (TTMTR)
Object type
Payload
Rocket body
Debris
Shape & HBR
Unknown shape, 0.1 m
Radar Cross Section
Small (<0.1 m²)

Expand to show TLE details & history
Last TLE update: 11 hours ago

TLE from 11 hours ago
0 SL-8 DEB
1  1479U 65020BD  25294.74764198  .00000956  00000-0  21208-2 0  9997
2  1479  56.0297 241.9802 0741206  96.3375 272.2412 12.59851364766318
Epoch: 2025-10-21T17:56Z
TLE epoch observation values (Epoch: 2025-10-21T17:56:36.267Z)
Latitude
0.00002°
Longitude
-57.60206°
Altitude
1,444.839 km
Speed
7.131 km/s
True Right ascension
16h 07m 55s
True Declination
0° 00' 00"
Sunlit
Object was in daylight at epoch
Visualization orbit readout
Latitude
Unknown
Longitude
Unknown
Altitude
Unknown
Speed
Unknown
Apparent Right ascension
Unknown
Apparent Declination
Unknown
Sunlit
N/A
Visualization observer readout
Local Sidereal Time
23:46:56
Azimuth
Unknown
Elevation
Unknown
Doppler factor
Unknown
Orbital elements
Apogee altitude
2,001.636 km
Perigee altitude
845.129 km
Semi-major axis
7,801.519 km
Eccentricity
0.07412
Inclination
56.0297°
RAAN
241.9802°
Arg. of periapsis
96.3375°
True anomaly
263.75439°
Mean anomaly
272.2412°
Eccentric anomaly
267.997°
Mean motion
3.14974 °/min
Orbital period
114.3 mins
BSTAR
0.0021208
Loading maneuver chart data...
Computing Atmospheric mass density...

Documentation

Showing up to 5 results
|